Back to catalog

CZ-6A DEB

AliveSSO
NORAD 55515·DEBRIS·🇨🇳 China

Launched Nov 11, 2022 from Taiyuan Satellite Launch Center

Loading…

Next Passes (next 24 hours)

TLE

FreshSource: Space-Track

Epoch: Sep 14, 2026, 13:37 UTC

1 55515U 22151XM  26257.56797455  .00003692  00000-0  72905-3 0  9998
2 55515  98.5092 298.5438 0131274  35.4251 325.5579 14.57689980197520

Track CZ-6A DEB in real time with AllMySat

Download on the App Store